Weather History for KDYB - May, 2014

Change the Weather History Date:

Sunday, May 25, 2014

  Actual Average (KCHS) Record (KCHS)
Temperature  
Mean Temperature 74 °F 75 °F  
Max Temperature 84 °F 85 °F 97 °F (1953)
Min Temperature 64 °F 65 °F 47 °F (1951)
Degree Days  
Heating Degree Days 0 0  
Month to date heating degree days 8  
Since 1 July heating degree days 1971  
Cooling Degree Days 9 10  
Month to date cooling degree days 181  
Year to date cooling degree days 299  
Growing Degree Days 24 (Base 50)    
Moisture  
Dew Point 63 °F    
Average Humidity 70    
Maximum Humidity 100    
Minimum Humidity 37    
Precipitation  
Precipitation 0.00 in 0.11 in 1.83 in (1970)
Month to date precipitation 2.33  
Year to date precipitation 15.62  
Sea Level Pressure  
Sea Level Pressure 30.16 in    
Wind  
Wind Speed 1 mph (SE)    
Max Wind Speed 7 mph    
Max Gust Speed -    
Visibility 10 miles    
Events      
T = Trace of Precipitation, MM = Missing Value Source: NWS Daily Summary

Daily Weather History Graph

Daily Weather History Graph

Search for Another Location

Airport or City:

Trip Planner

Search our weather history database for the weather conditions in past years. The results will help you decide how hot, cold, wet, or windy it might be!

Date:

Astronomy

May. 25, 2014 Rise Set
Actual Time 6:15 AM EDT 8:20 PM EDT
Civil Twilight 5:47 AM EDT 8:48 PM EDT
Nautical Twilight 5:14 AM EDT 9:22 PM EDT
Astronomical Twilight 4:37 AM EDT 9:59 PM EDT
Moon 4:08 AM EDT (5/25) 5:28 PM EDT (5/25)
Length of Visible Light 15h 00m
Length of Day
14h 04m
Waning Crescent, 10% of the Moon is Illuminated
May 25
Waning Crescent
May 28
New
Jun 5
First Quarter
Jun 13
Full
Jun 19
Last Quarter

Hourly Weather History & Observations

Time (EDT) Temp. Heat Index Dew Point Humidity Pressure Visibility Wind Dir Wind Speed Gust Speed Precip Events Conditions
12:15 AM 68.0 °F - 64.4 °F 88% 30.11 in 10.0 mi Calm Calm - N/A   Clear
12:35 AM 68.0 °F - 64.4 °F 88% 30.11 in 10.0 mi Calm Calm - N/A   Clear
12:55 AM 68.0 °F - 64.4 °F 88% 30.11 in 10.0 mi Calm Calm - N/A   Clear
1:15 AM 66.2 °F - 64.4 °F 94% 30.11 in 10.0 mi Calm Calm - N/A   Scattered Clouds
1:35 AM 68.0 °F - 64.4 °F 88% 30.10 in 10.0 mi Calm Calm - N/A   Mostly Cloudy
2:15 AM 66.2 °F - 64.4 °F 94% 30.10 in 10.0 mi Calm Calm - N/A   Scattered Clouds
2:35 AM 64.4 °F - 64.4 °F 100% 30.11 in 10.0 mi Calm Calm - N/A   Scattered Clouds
2:55 AM 64.4 °F - 64.4 °F 100% 30.10 in 10.0 mi Calm Calm - N/A   Scattered Clouds
3:15 AM 64.4 °F - 64.4 °F 100% 30.10 in 10.0 mi Calm Calm - N/A   Scattered Clouds
3:35 AM 64.4 °F - 64.4 °F 100% 30.11 in 10.0 mi Calm Calm - N/A   Mostly Cloudy
3:55 AM 66.2 °F - 64.4 °F 94% 30.10 in 10.0 mi Calm Calm - N/A   Overcast
4:15 AM 64.4 °F - 64.4 °F 100% 30.11 in 10.0 mi Calm Calm - N/A   Overcast
4:35 AM 64.4 °F - 64.4 °F 100% 30.12 in 10.0 mi Calm Calm - N/A   Overcast
5:15 AM 66.2 °F - 64.4 °F 94% 30.12 in 10.0 mi North 3.5 mph - N/A   Overcast
5:35 AM 66.2 °F - 64.4 °F 94% 30.12 in 10.0 mi Calm Calm - N/A   Overcast
5:55 AM 66.2 °F - 64.4 °F 94% 30.12 in 10.0 mi Calm Calm - N/A   Mostly Cloudy
6:15 AM 66.2 °F - 64.4 °F 94% 30.13 in 10.0 mi Calm Calm - N/A   Overcast
6:35 AM 66.2 °F - 64.4 °F 94% 30.14 in 10.0 mi Calm Calm - N/A   Mostly Cloudy
6:55 AM 68.0 °F - 64.4 °F 88% 30.14 in 10.0 mi Calm Calm - N/A   Scattered Clouds
7:15 AM 68.0 °F - 66.2 °F 94% 30.15 in 10.0 mi Calm Calm - N/A   Scattered Clouds
7:35 AM 68.0 °F - 66.2 °F 94% 30.16 in 10.0 mi Calm Calm - N/A   Overcast
7:55 AM 69.8 °F - 68.0 °F 94% 30.16 in 10.0 mi Calm Calm - N/A   Overcast
8:15 AM 71.6 °F - 68.0 °F 88% 30.16 in 10.0 mi Calm Calm - N/A   Overcast
8:35 AM 73.4 °F - 68.0 °F 83% 30.16 in 10.0 mi Calm Calm - N/A   Mostly Cloudy
8:55 AM 73.4 °F - 66.2 °F 78% 30.17 in 10.0 mi Calm Calm - N/A   Mostly Cloudy
9:15 AM 75.2 °F - 66.2 °F 73% 30.18 in 10.0 mi Calm Calm - N/A   Overcast
9:35 AM 77.0 °F - 64.4 °F 65% 30.18 in 10.0 mi East 3.5 mph - N/A   Mostly Cloudy
9:55 AM 77.0 °F - 64.4 °F 65% 30.19 in 10.0 mi Calm Calm - N/A   Mostly Cloudy
10:15 AM 77.0 °F - 64.4 °F 65% 30.19 in 10.0 mi East 4.6 mph - N/A   Mostly Cloudy
11:15 AM 78.8 °F - 60.8 °F 54% 30.20 in 10.0 mi SE 6.9 mph - N/A   Overcast
11:35 AM 78.8 °F - 62.6 °F 57% 30.20 in 10.0 mi SE 3.5 mph - N/A   Overcast
11:55 AM 80.6 °F 81.8 °F 62.6 °F 54% 30.20 in 10.0 mi SSE 4.6 mph - N/A   Mostly Cloudy
12:15 PM 80.6 °F 81.8 °F 62.6 °F 54% 30.19 in 10.0 mi SSE 3.5 mph - N/A   Overcast
12:35 PM 82.4 °F 83.4 °F 62.6 °F 51% 30.19 in 10.0 mi ESE 3.5 mph - N/A   Mostly Cloudy
12:55 PM 82.4 °F 82.9 °F 60.8 °F 48% 30.19 in 10.0 mi South 6.9 mph - N/A   Scattered Clouds
1:15 PM 82.4 °F 83.4 °F 62.6 °F 51% 30.18 in 10.0 mi SSE 5.8 mph - N/A   Scattered Clouds
1:35 PM 82.4 °F 82.9 °F 60.8 °F 48% 30.18 in 10.0 mi South 5.8 mph - N/A   Scattered Clouds
1:55 PM 82.4 °F 82.9 °F 60.8 °F 48% 30.17 in 10.0 mi South 5.8 mph - N/A   Mostly Cloudy
2:15 PM 82.4 °F 82.5 °F 59.0 °F 45% 30.17 in 10.0 mi SSE 4.6 mph - N/A   Mostly Cloudy
2:35 PM 82.4 °F 82.0 °F 57.2 °F 42% 30.17 in 10.0 mi SE 3.5 mph - N/A   Mostly Cloudy
2:55 PM 84.2 °F 83.0 °F 55.4 °F 37% 30.16 in 10.0 mi SE 4.6 mph - N/A   Scattered Clouds
3:15 PM 84.2 °F 83.8 °F 59.0 °F 42% 30.16 in 10.0 mi ESE 5.8 mph - N/A   Scattered Clouds
3:35 PM 82.4 °F 82.9 °F 60.8 °F 48% 30.15 in 10.0 mi SSE 4.6 mph - N/A   Clear
3:55 PM 82.4 °F 82.9 °F 60.8 °F 48% 30.15 in 10.0 mi SSE 3.5 mph - N/A   Clear
4:15 PM 84.2 °F 84.4 °F 60.8 °F 45% 30.14 in 10.0 mi SSE 5.8 mph - N/A   Scattered Clouds
4:35 PM 82.4 °F 82.9 °F 60.8 °F 48% 30.14 in 10.0 mi SE 3.5 mph - N/A   Scattered Clouds
4:55 PM 82.4 °F 82.9 °F 60.8 °F 48% 30.14 in 10.0 mi Calm Calm - N/A   Clear
5:15 PM 80.6 °F 81.8 °F 62.6 °F 54% 30.14 in 10.0 mi SSE 4.6 mph - N/A   Scattered Clouds
5:35 PM 80.6 °F 81.8 °F 62.6 °F 54% 30.14 in 10.0 mi SE 5.8 mph - N/A   Scattered Clouds
5:55 PM 78.8 °F - 62.6 °F 57% 30.14 in 10.0 mi Calm Calm - N/A   Scattered Clouds
6:15 PM 78.8 °F - 62.6 °F 57% 30.15 in 10.0 mi SE 5.8 mph - N/A   Scattered Clouds
6:35 PM 78.8 °F - 60.8 °F 54% 30.15 in 10.0 mi SE 4.6 mph - N/A   Scattered Clouds
6:55 PM 77.0 °F - 59.0 °F 54% 30.15 in 10.0 mi SE 3.5 mph - N/A   Clear
7:15 PM 77.0 °F - 59.0 °F 54% 30.14 in 10.0 mi SE 3.5 mph - N/A   Clear
7:35 PM 77.0 °F - 59.0 °F 54% 30.15 in 10.0 mi SE 4.6 mph - N/A   Clear
7:55 PM 75.2 °F - 59.0 °F 57% 30.16 in 10.0 mi SE 4.6 mph - N/A   Clear
8:15 PM 73.4 °F - 59.0 °F 61% 30.17 in 10.0 mi SSE 3.5 mph - N/A   Clear
8:35 PM 73.4 °F - 60.8 °F 65% 30.18 in 10.0 mi South 3.5 mph - N/A   Clear
8:55 PM 73.4 °F - 60.8 °F 65% 30.18 in 10.0 mi Calm Calm - N/A   Clear
9:15 PM 73.4 °F - 60.8 °F 65% 30.19 in 10.0 mi Calm Calm - N/A   Scattered Clouds
9:35 PM 71.6 °F - 60.8 °F 69% 30.19 in 10.0 mi SE 3.5 mph - N/A   Scattered Clouds
9:55 PM 71.6 °F - 62.6 °F 73% 30.19 in 10.0 mi Calm Calm - N/A   Clear
10:15 PM 71.6 °F - 62.6 °F 73% 30.20 in 10.0 mi Calm Calm - N/A   Clear
10:35 PM 71.6 °F - 62.6 °F 73% 30.21 in 10.0 mi Calm Calm - N/A   Clear
10:55 PM 71.6 °F - 62.6 °F 73% 30.21 in 10.0 mi Calm Calm - N/A   Clear
11:15 PM 71.6 °F - 62.6 °F 73% 30.21 in 10.0 mi Calm Calm - N/A   Clear
11:35 PM 71.6 °F - 62.6 °F 73% 30.21 in 10.0 mi Calm Calm - N/A   Scattered Clouds
11:55 PM 71.6 °F - 62.6 °F 73% 30.21 in 10.0 mi Calm Calm - N/A   Mostly Cloudy